Regional Weather Roundup
Issued by NWS

Home | Current Version | Previous Version | Graphics & Text | Print | Product List | Glossary On
Versions: 1 2 3 4 5 6 7 8 9 10 11 12 13 14 15 16 17 18 19 20 21 22 23 24 25 26 27 28 29 30 31 32 33 34 35 36 37 38 39 40 41 42 43 44 45 46 47 48 49 50
353
ASUS43 KIND 221109
RWRIN

WEATHER ROUNDUP FOR INDIANA
NATIONAL WEATHER SERVICE INDIANAPOLIS IN
600 AM EST SUN JAN 22 2017

NOTE: "FAIR" INDICATES FEW OR NO CLOUDS BELOW 12,000 FEET WITH NO
SIGNIFICANT WEATHER AND/OR OBSTRUCTIONS TO VISIBILITY.

* - STATION DOES NOT REPORT WEATHER SUCH AS PRECIPITATION OR FOG.

+ - STATION NOT QUALITY CONTROLLED BY THE NATIONAL WEATHER SERVICE.
    USE DATA WITH CAUTION...ESPECIALLY DEWPOINT AND RELATIVE
    HUMIDITY OBSERVATIONS.

INZ001>003-010>013-019-020-221200-
NORTHWEST INDIANA

CITY           SKY/WX    TMP DP  RH WIND       PRES   REMARKS
GARY /AIRPORT/ CLOUDY    39  39 100 NE5       29.58F VSB 1/4
KNOX *+        CLOUDY    37  32  81 CALM      29.57R VSB 1/2
LA PORTE +     FOG       36  36 100 N8        29.57S VSB 1/4
MICHIGAN CITY+ FOG       36  36 100 NE5       29.58F VSB 1/4
MONTICELLO +   FOG       37  36  95 CALM      29.55S VSB 1/2
RENSSELAER +   FOG       36  36 100 CALM      29.57R VSB 1/4
VALPARAISO     FOG       37  37 100 N6        29.58R VSB 1/4

$$

LMZ046-743>745-221200-
SOUTHERN LAKE MICHIGAN

STATION/POSITION TIME  TEMP    WIND        PRES    WAVE
                       AIR SEA DIR/SP/G            HT
                 (UTC) (F)     (DEG/KT/KT) (MB)    (FT)
BURNS HARBOR     1040   35      70/  6/  7 1002.4F
MICHIGAN CITY    1040   35      30/  6/  6   N/A

$$

INZ004-005-014>016-021>024-221200-
NORTH CENTRAL INDIANA

CITY           SKY/WX    TMP DP  RH WIND       PRES   REMARKS
GOSHEN         FOG       37  35  92 CALM      29.57R VSB 1/4
LOGANSPORT +     N/A     45  45 100 CALM      29.57S FOG
PERU/GRISSOM   PTCLDY    44  44 100 SE6       29.55S
ROCHESTER +    FOG       37  37 100 CALM      29.57S VSB 1/4
SOUTH BEND     FOG       37  37 100 N5        29.57S VSB 1/4
WARSAW +       FOG       34  34 100 CALM      29.57R VSB<1/4

$$

INZ006>009-017-018-025>027-221200-
NORTHEAST INDIANA

CITY           SKY/WX    TMP DP  RH WIND       PRES   REMARKS
ANGOLA *+      CLOUDY    37  34  87 CALM      29.56S VSB 1/4
AUBURN +       FOG       45  43  93 CALM      29.58R VSB 1/4
FORT WAYNE     CLOUDY    47  45  93 CALM      29.57R
HUNTINGTON +   CLOUDY    47  46  95 S5        29.57R
KENDALLVILLE + FOG       45  45 100 CALM      29.57R VSB 1/2

$$

INZ028-029-035-036-043>045-051>053-221200-
WEST CENTRAL INDIANA

CITY           SKY/WX    TMP DP  RH WIND       PRES   REMARKS
CRAWFORDSVL +  CLOUDY    46  46 100 E8        29.54S
GREENCASTLE +  PTCLDY    46  46 100 NE3       29.54F
LAFAYETTE      FOG       40  40 100 NE3       29.55R VSB 1/4
TERRE HAUTE    CLOUDY    48  45  89 E5        29.52F

$$

INZ030>032-037>040-046>048-054>057-064-065-221200-
CENTRAL INDIANA

CITY           SKY/WX    TMP DP  RH WIND       PRES   REMARKS
CP ATTERBURY + CLOUDY    37  37 100 CALM      29.56S VSB 1/4
FISHERS *+     CLOUDY    48  48 100 E5        29.56F
FRANKFORT +    CLEAR     48  46  93 SE5       29.57S
GREENWOOD *+   CLEAR     50  50 100 E8        29.56F
INDIANAPOLIS   PTCLDY    50  48  93 E8        29.54F
-EAGLE CREEK   FOG       43  42  97 N3        29.55S VSB 1/4
KOKOMO +       CLOUDY    46  45  96 E5        29.58R
MARION +       CLOUDY    48  46  93 SE8       29.58S FOG
MT COMFORT *+  CLOUDY    46  45  93 E7        29.57S
SHELBYVILLE    PTCLDY    48  45  89 NE9       29.55F
ZIONSVILLE +   CLOUDY    49  47  93 E8        29.56F

$$

INZ033-034-041-042-049-050-058-059-221200-
EAST CENTRAL INDIANA

CITY           SKY/WX    TMP DP  RH WIND       PRES   REMARKS
MUNCIE         CLOUDY    49  45  86 E8        29.58S

$$

INZ060-061-067>069-081>083-085>088-221200-
SOUTHWEST INDIANA

CITY           SKY/WX    TMP DP  RH WIND       PRES   REMARKS
EVANSVILLE     CLOUDY    51  47  86 E3        29.52R
HUNTINGBURG *+ MOCLDY    50  46  87 SE7       29.53R
WASHINGTON +   CLOUDY   N/A N/A N/A CALM      29.52R

$$

INZ062-063-066-070>080-084-089>092-221200-
SOUTH CENTRAL AND SOUTHEAST INDIANA

CITY           SKY/WX    TMP DP  RH WIND       PRES   REMARKS
BLOOMINGTON    CLOUDY    42  39  89 SE3       29.53S FOG
MADISON *+     CLOUDY    46  45  93 NE3       29.58R
NORTH VERNON + MOCLDY   N/A N/A N/A NE5       29.56S
SEYMOUR +      MOCLDY    45  45 100 NW3       29.55R FOG

$$





USA.gov is the U.S. government's official web portal to all federal, state and local government web resources and services.